Other Public Products
Issued by NWS Grand Forks, ND

Home | Current Version | Previous Version | Text Only | Print | Product List | Glossary Off
Versions: 1 2 3 4 5 6 7 8 9 10 11 12 13 14 15 16 17 18 19 20 21 22 23 24 25 26 27 28 29 30 31 32 33 34 35 36 37 38 39 40 41 42 43 44 45 46 47 48 49 50

000
FPUS83 KFGF 261231
OPUFGF
PRAIRIE TO PINES WEATHER ROUNDUP
NATIONAL WEATHER SERVICE EASTERN NORTH DAKOTA/GRAND FORKS ND
700 AM CDT WED JUL 26 2017

 **SATELLITE DATA USED TO AUGMENT SKY COVER AT AUTOMATED STATIONS**
 *****  WEATHER ACROSS EASTERN NORTH DAKOTA  *****

CITY           SKY/WX    TMP DP  RH WIND       PRES   REMARKS
GRAND FORKS    FAIR      63  60  90 NW7       30.00R
6HR MIN TEMP:  60; 6HR MAX TEMP:  64;

GRAND FORKS AF FAIR      63  58  84 NW9       30.01S
GRAND CITY NWS NOT AVBL
BUXTON           N/A     65  63  94 NW5         N/A
DEVILS LAKE    FAIR      62  59  90 NW8       30.07S
6HR MIN TEMP:  59; 6HR MAX TEMP:  70;

FARGO          FAIR      62  58  86 W6        30.01R
6HR MIN TEMP:  59; 6HR MAX TEMP:  64;

WAHPETON ARPT  FAIR      63  59  88 W5        30.02R
$$

 *****  WEATHER ACROSS CENTRAL AND WESTERN NORTH DAKOTA  *****

CITY           SKY/WX    TMP DP  RH WIND       PRES   REMARKS
JAMESTOWN      FAIR      61  57  87 NW5       30.05R
6HR MIN TEMP:  58; 6HR MAX TEMP:  65;

BISMARCK       FAIR      62  56  80 CALM      30.09R
6HR MIN TEMP:  57; 6HR MAX TEMP:  68;

MINOT          FAIR      60  54  80 W5        30.11S
6HR MIN TEMP:  58; 6HR MAX TEMP:  65;

MINOT AFB      FAIR      53  52  94 W3        30.10R
6HR MIN TEMP:  52; 6HR MAX TEMP:  60;

GARRISON         N/A     55  53  93 N8        30.11S
6HR MIN TEMP:  54; 6HR MAX TEMP:  64;

WILLISTON      FAIR      56  49  77 CALM      30.14R
6HR MIN TEMP:  55; 6HR MAX TEMP:  64;

DICKINSON      FAIR      55  50  83 SE5       30.12R
6HR MIN TEMP:  55; 6HR MAX TEMP:  68;

HETTINGER      CLOUDY    61  56  83 CALM      30.14R
6HR MIN TEMP:  57; 6HR MAX TEMP:  69;

$$

 *****  OTHER OBSERVATIONS NORTHEAST NORTH DAKOTA  *****

CITY           SKY/WX    TMP DP  RH WIND       PRES   REMARKS
WALHALLA       NOT AVBL
LANGDON        FAIR      57  57 100 NW8       30.06S
CAVALIER       FAIR      64  59  82 NW9       30.01R
GRAFTON        FAIR      64  59  82 NW10      30.03R
CANDO          NOT AVBL
FORT TOTTEN      N/A     61  60  98 NW3       29.95S
ROLLA            N/A     61  61 100 NW10      30.10R
RUGBY          NOT AVBL
 ***** THE ABOVE OBSERVATIONS ARE NON NWS ARE NOT QUALITY
        CONTROLLED AND MAY MIS-REPORT RAIN FOR SNOW...
$$

 *****  OTHER OBSERVATIONS SOUTHEAST NORTH DAKOTA *****

CITY           SKY/WX    TMP DP  RH WIND       PRES   REMARKS
COOPERSTOWN    FAIR      64  61  88 NW7       30.05S
VALLEY CITY    FAIR      63  63 100 NW3       30.06S
OAKES          NOT AVBL
GWINNER        SUNNY     63  61  94 CALM      30.04R
SHEYENNE NWR     N/A     59  58  97 SW2       29.95S
BUFFALO          N/A     62  58  86 E2          N/A
WYNDMERE       NOT AVBL
 ***** THE ABOVE OBSERVATIONS ARE NON NWS ARE NOT QUALITY
       CONTROLLED AND MAY MIS-REPORT RAIN FOR SNOW...
$$

  *****  WEATHER ACROSS NORTHERN MINNESOTA  *****

CITY           SKY/WX    TMP DP  RH WIND       PRES   REMARKS
FLAG ISLAND    FAIR      64  61  88 NW13      29.95R
WARROAD        FAIR      59  55  88 W7        29.98R
ROSEAU         FAIR      61  55  82 NW5       29.99R
HALLOCK        FAIR      61  59  94 NW6       30.00R
THF RVR FALLS  FAIR      61  57  87 NW8       30.01R
6HR MIN TEMP:  58; 6HR MAX TEMP:  61;

HALSTAD          N/A     61  57  88 W2          N/A
FOSSTON        FAIR      63  57  82 W3        30.01S
BAUDETTE       FAIR      60  57  89 W6        29.95S
6HR MIN TEMP:  56; 6HR MAX TEMP:  62;

WASKISH        FAIR      64  59  82 NW9       29.97R
CROOKSTON      FAIR      61  57  88 NW5       30.01S
$$
  *****  WEATHER ACROSS CENTRAL AND WEST MINNESOTA  *****

CITY           SKY/WX    TMP DP  RH WIND       PRES   REMARKS
BEMIDJI        FAIR      62  57  84 W6        30.00S
PARK RAPIDS    FAIR      60  56  86 NW3       30.01S
6HR MIN TEMP:  59; 6HR MAX TEMP:  68;

WADENA         FAIR      61  61 100 CALM      30.01R
DETROIT LAKES  FAIR      64  59  82 NW3       30.03S
MOORHEAD       FAIR      61  59  94 CALM      30.02S
FERGUS FALLS   FAIR      66  61  82 CALM      30.01R
ELBOW LAKE     FAIR      65  62  90 CALM      30.03R
6HR MIN TEMP:  65; 6HR MAX TEMP:  71;

MORRIS MN      FAIR      70  66  88 NE5       30.01S
STAPLES        FAIR      63  61  94 NW3       30.01R
WHEATON        FAIR      66  63  88 CALM      30.04S
$$
  *****  WEATHER ELSEWHERE ACROSS MINNESOTA  *****

CITY           SKY/WX    TMP DP  RH WIND       PRES   REMARKS
DULUTH         FAIR      64  63  96 W5        29.99R
6HR MIN TEMP:  64; 6HR MAX TEMP:  71;

INTRNTL FALLS  FAIR      61  57  87 NW6       29.94S
6HR MIN TEMP:  55; 6HR MAX TEMP:  64;

ELY            FAIR      63  57  82 NW5       29.96R
CLOQUET        FAIR      66  63  88 SW3       30.00R
BRAINERD       FAIR      66  62  87 CALM      30.00R
6HR MIN TEMP:  65; 6HR MAX TEMP:  72;

HIBBING        FAIR      60  59  96 SW3       29.98R
6HR MIN TEMP:  56; 6HR MAX TEMP:  67;

ALEXANDRIA     FAIR      68  59  73 CALM      30.03R
6HR MIN TEMP:  67; 6HR MAX TEMP:  71;

SAINT CLOUD    CLOUDY    69  68  96 N3        29.99R
6HR MIN TEMP:  69; 6HR MAX TEMP:  71; 6HR PCP:  0.05;

MINNEAPOLIS    CLOUDY    73  69  87 CALM      29.97R
6HR MIN TEMP:  72; 6HR MAX TEMP:  78; 6HR PCP:  0.43;

$$

  *****  WEATHER ACROSS SOUTH DAKOTA  *****

CITY           SKY/WX    TMP DP  RH WIND       PRES   REMARKS
SIOUX FALLS    CLOUDY    71  70  96 CALM      30.01R
6HR MIN TEMP:  71; 6HR MAX TEMP:  73; 6HR PCP:  0.04;

BROOKINGS      CLOUDY    69  68  96 CALM      30.03R
WATERTOWN      FAIR      69  63  81 NE6       30.02R
6HR MIN TEMP:  69; 6HR MAX TEMP:  72; 6HR PCP: TRACE;

HURON          FAIR      71  69  93 E5        29.99R
6HR MIN TEMP:  68; 6HR MAX TEMP:  71;

SISSETON         N/A     67  64  90 CALM      30.02R
ABERDEEN       FAIR      68  63  84 NE6       30.03R
6HR MIN TEMP:  68; 6HR MAX TEMP:  72; 6HR PCP: TRACE;

MITCHELL       FAIR      69  68  96 CALM      29.99R
PIERRE         FAIR      71  67  87 N13       30.01R
6HR MIN TEMP:  71; 6HR MAX TEMP:  75;

MOBRIDGE       FAIR      64  61  90 NW6       30.04R
RAPID CITY     MOCLDY    70  50  49 N6        30.13R
6HR MIN TEMP:  68; 6HR MAX TEMP:  71; 6HR PCP: TRACE;

$$

  *****  SOME WEATHER IN NEARBY STATES *****

CITY           SKY/WX    TMP DP  RH WIND       PRES   REMARKS
GLASGOW MT     FAIR      58  46  64 E3        30.12R
6HR MIN TEMP:  56; 6HR MAX TEMP:  67;

GREAT FALLS MT FAIR      52  39  61 SW6       30.14R
6HR MIN TEMP:  52; 6HR MAX TEMP:  69;

CHEYENNE WY    LGT RAIN  60  58  92 N8        30.27R
6HR MIN TEMP:  60; 6HR MAX TEMP:  63; 6HR PCP:  0.01;

SCOTTSBLUFF NE CLOUDY    70  57  63 NW7       30.15R
6HR MIN TEMP:  70; 6HR MAX TEMP:  76;

OMAHA NE       LGT RAIN  74  70  87 SE9       29.98F
6HR MIN TEMP:  75; 6HR MAX TEMP:  83; 6HR PCP:  0.20;

DES MOINES IA  CLOUDY    75  69  81 S7        29.99R
6HR MIN TEMP:  75; 6HR MAX TEMP:  79;

DAVENPORT IA   FAIR      72  67  84 S12       30.06S
6HR MIN TEMP:  70; 6HR MAX TEMP:  73;

CHICAGO IL     PTSUNNY   68  60  75 S7        30.09S
6HR MIN TEMP:  65; 6HR MAX TEMP:  70;

EAU CLAIRE WI  LGT RAIN  70  70 100 S6        30.00F FOG
6HR MIN TEMP:  70; 6HR MAX TEMP:  73; 6HR PCP:  0.95;

LA CROSSE WI   PTSUNNY   76  70  82 NW8       30.03R
6HR MIN TEMP:  75; 6HR MAX TEMP:  77;

$$

  *****  SOME NATIONAL WEATHER *****

CITY           SKY/WX    TMP DP  RH WIND       PRES   REMARKS
LA GUARDIA NY  FAIR      67  58  72 NE6       30.24R



USA.gov is the U.S. government's official web portal to all federal, state and local government web resources and services.